Probability
48 45 45 45 35 35 42 39 29 32 35 32 32 23 32 26 3 13 23 10 3 3 0 0 0 0 0 0 3 3 3 3 3 3 3 6 6 6
48 42 42 42 39 42 42 35 42 32 32 26 29 29 19 16 6 16 19 13 3 0 0 0 0 0 0 0 0 0 0 0 0 0 3 3 3 6
35 29 35 42 26 35 35 39 42 39 23 19 19 32 35 29 10 23 26 19 6 3 0 0 0 0 0 0 0 0 0 0 0 0 0 0 0 0
35 32 32 26 29 32 35 35 29 29 26 19 23 32 32 32 16 26 23 13 13 6 0 0 0 0 0 0 0 0 0 0 0 0 0 0 0 0
39 39 29 32 32 35 32 32 29 19 32 32 26 35 35 26 26 23 19 16 13 6 0 0 0 0 0 0 0 0 0 0 0 0 0 0 0 0
35 42 35 32 29 29 23 29 35 26 29 29 29 29 32 29 23 13 10 16 6 6 3 0 0 0 0 0 0 0 0 0 0 0 0 0 0 0
26 26 29 26 23 23 16 26 23 23 23 26 26 29 29 23 23 16 3 10 6 3 6 6 6 3 0 0 0 0 0 0 0 0 0 0 0 0
29 26 23 16 13 10 3 3 10 6 10 16 19 26 29 26 26 16 6 10 10 6 13 6 6 6 6 3 3 0 0 0 0 0 0 0 0 0
26 26 26 16 13 13 10 0 3 0 3 6 13 23 23 26 26 19 6 10 10 6 10 10 10 10 10 6 3 0 0 0 0 0 0 0 0 0
26 29 26 23 16 16 16 19 16 10 0 0 3 10 13 26 29 16 19 13 16 16 6 3 3 3 3 6 3 3 0 0 0 0 0 0 0 0
26 23 19 26 16 6 10 19 16 13 10 0 0 3 0 0 6 19 13 3 6 3 3 3 3 3 3 6 6 3 0 0 0 0 0 0 0 0
32 29 16 16 10 6 6 19 19 23 19 6 6 0 3 3 0 0 6 3 6 3 3 3 3 3 3 6 3 3 0 0 0 0 0 0 0 0
29 29 29 13 0 0 3 10 16 10 29 26 19 13 13 13 13 6 10 6 6 3 3 3 3 3 3 3 3 3 3 0 0 0 0 0 0 0
26 26 16 0 0 0 0 0 0 0 6 16 16 16 19 16 16 13 13 6 6 3 3 3 3 3 3 3 3 3 3 3 0 0 0 0 0 0
13 6 6 0 0 0 0 0 0 0 3 10 16 16 19 16 19 10 19 13 6 10 6 3 3 6 3 3 3 3 3 3 3 3 0 0 0 0
3 6 0 0 0 0 0 3 0 3 6 10 13 16 23 19 19 16 10 10 6 6 6 3 6 6 3 3 3 3 3 3 3 3 0 0 0 0
10 10 10 13 6 10 10 19 16 13 10 13 19 19 19 16 16 16 16 13 6 6 6 6 3 3 3 3 3 3 3 3 0 0 3 0 0 0
3 13 13 13 16 16 16 19 23 23 26 19 16 13 16 13 16 13 13 13 10 3 3 3 3 0 0 3 3 0 0 0 0 0 0 0 0 0
0 10 13 13 13 16 13 10 10 19 26 23 16 16 13 10 3 3 3 6 3 6 3 3 3 3 0 0 0 0 0 0 0 0 0 0 0 0
0 6 13 10 13 13 13 16 13 10 16 13 13 13 16 16 13 6 3 3 0 0 3 0 0 3 3 3 3 0 0 0 0 0 0 0 0 0
10 6 10 10 13 13 16 16 16 13 13 13 13 13 13 13 13 13 6 3 0 0 0 3 0 0 0 3 0 0 0 0 0 0 0 0 0 0
6 10 6 6 6 10 10 10 10 13 16 13 6 13 13 13 10 10 10 6 3 3 0 3 3 0 0 0 0 0 0 0 0 0 0 0 0 0
6 6 6 6 6 6 3 3 3 3 6 6 6 6 6 6 6 6 6 6 6 3 3 3 3 0 0 0 0 0 0 0 0 0 0 0 0 0
Height
5857 5856 5855 5854 5854 5854 5854 5854 5854 5854 5853 5852 5852 5851 5851 5851 5851 5851 5851 5851 5850 5850 5850 5850 5849 5848 5848 5847 5847 5847 5846 5846 5847 5847 5846 5846 5845 5845
5854 5853 5852 5851 5850 5850 5850 5850 5850 5850 5850 5849 5849 5849 5848 5848 5848 5848 5847 5847 5847 5846 5846 5845 5844 5844 5844 5843 5843 5843 5842 5842 5842 5842 5842 5841 5841 5840
5850 5849 5849 5848 5847 5847 5847 5846 5846 5846 5845 5846 5845 5845 5844 5844 5844 5843 5843 5843 5842 5842 5841 5841 5840 5839 5839 5839 5838 5838 5837 5837 5837 5837 5837 5836 5836 5835
5846 5845 5845 5844 5843 5843 5842 5842 5841 5841 5841 5841 5840 5840 5839 5839 5839 5839 5838 5838 5837 5837 5836 5836 5835 5834 5834 5834 5833 5833 5833 5832 5832 5832 5831 5831 5831 5830
5842 5841 5840 5839 5838 5838 5837 5837 5836 5836 5835 5835 5835 5834 5834 5834 5834 5833 5833 5833 5832 5831 5831 5830 5830 5829 5829 5829 5828 5828 5828 5827 5827 5826 5826 5825 5825 5824
5837 5836 5835 5834 5832 5831 5831 5831 5830 5830 5829 5829 5829 5829 5828 5828 5828 5828 5827 5827 5826 5825 5825 5825 5824 5824 5823 5823 5823 5822 5822 5821 5821 5820 5820 5820 5819 5819
5831 5830 5829 5827 5826 5825 5825 5824 5823 5823 5823 5822 5822 5822 5822 5821 5821 5821 5820 5820 5820 5819 5819 5818 5818 5817 5817 5816 5816 5815 5815 5815 5815 5814 5814 5813 5813 5812
5824 5823 5822 5821 5820 5819 5818 5817 5816 5816 5815 5815 5815 5815 5815 5814 5814 5814 5813 5812 5813 5813 5812 5812 5811 5811 5810 5809 5808 5808 5808 5808 5808 5808 5807 5806 5806 5805
5816 5815 5814 5813 5812 5812 5811 5810 5809 5808 5807 5807 5807 5807 5807 5806 5806 5806 5805 5805 5805 5805 5804 5804 5804 5803 5802 5802 5801 5801 5801 5800 5800 5800 5799 5799 5798 5798
5807 5806 5805 5805 5804 5804 5803 5802 5801 5800 5799 5798 5798 5798 5798 5798 5798 5797 5797 5797 5797 5796 5796 5796 5795 5795 5795 5794 5794 5793 5793 5792 5792 5792 5791 5791 5790 5790
5798 5797 5796 5796 5795 5794 5794 5793 5793 5792 5791 5790 5790 5789 5789 5789 5789 5788 5788 5788 5788 5788 5787 5787 5786 5786 5786 5786 5786 5785 5784 5784 5783 5783 5783 5782 5782 5782
5789 5787 5786 5786 5785 5784 5784 5784 5784 5783 5782 5782 5781 5781 5780 5779 5779 5779 5779 5779 5779 5779 5779 5777 5777 5777 5777 5777 5777 5776 5776 5775 5775 5774 5774 5773 5773 5773
5780 5778 5777 5776 5776 5775 5774 5774 5773 5773 5772 5772 5771 5771 5770 5769 5769 5769 5769 5769 5769 5769 5769 5768 5768 5767 5767 5767 5767 5767 5767 5766 5765 5765 5764 5764 5763 5763
5770 5769 5767 5766 5766 5765 5764 5764 5763 5763 5762 5762 5761 5761 5760 5760 5759 5759 5758 5758 5758 5759 5759 5758 5758 5758 5757 5757 5757 5757 5756 5756 5755 5755 5754 5754 5754 5753
5761 5759 5758 5757 5756 5755 5754 5754 5753 5752 5752 5751 5751 5751 5750 5750 5749 5749 5749 5748 5748 5749 5748 5748 5748 5748 5747 5747 5747 5747 5746 5746 5745 5745 5744 5744 5744 5744
5751 5750 5748 5747 5746 5745 5744 5744 5743 5742 5742 5741 5741 5741 5740 5739 5739 5739 5739 5738 5739 5739 5738 5738 5738 5738 5737 5737 5737 5736 5736 5736 5735 5735 5735 5735 5734 5734
5741 5740 5738 5737 5736 5735 5734 5733 5733 5732 5732 5731 5731 5730 5730 5729 5728 5728 5728 5728 5728 5728 5728 5728 5727 5727 5727 5727 5726 5726 5726 5726 5725 5725 5725 5724 5724 5724
5732 5730 5728 5727 5726 5725 5724 5723 5722 5722 5721 5721 5720 5719 5719 5719 5718 5718 5718 5718 5718 5718 5717 5717 5717 5717 5717 5717 5717 5716 5715 5716 5715 5715 5714 5714 5714 5713
5723 5721 5719 5718 5716 5715 5713 5712 5712 5711 5710 5710 5709 5709 5708 5708 5708 5708 5707 5706 5707 5707 5707 5707 5706 5706 5706 5707 5706 5706 5706 5705 5705 5705 5705 5704 5703 5703
5715 5712 5710 5708 5707 5705 5704 5702 5701 5701 5700 5699 5699 5698 5698 5698 5697 5697 5697 5696 5696 5696 5696 5696 5696 5696 5696 5696 5696 5695 5695 5695 5695 5694 5694 5693 5692 5691
5706 5704 5702 5700 5698 5696 5694 5693 5692 5691 5690 5690 5689 5688 5688 5687 5687 5687 5687 5686 5686 5686 5686 5686 5686 5685 5685 5685 5686 5685 5685 5684 5684 5683 5682 5681 5680 5680
5698 5696 5693 5691 5689 5687 5685 5684 5683 5682 5681 5680 5679 5678 5677 5677 5676 5676 5676 5676 5676 5676 5676 5676 5675 5675 5675 5675 5675 5675 5674 5674 5673 5672 5671 5670 5669 5669
5689 5687 5685 5683 5680 5678 5676 5674 5673 5671 5670 5669 5668 5668 5667 5667 5666 5666 5666 5666 5666 5666 5666 5666 5666 5665 5664 5664 5664 5664 5663 5663 5663 5662 5662 5660 5660 5659
Wind_Speed
13 13 12 13 13 13 13 13 13 12 12 12 12 12 12 13 13 13 13 13 13 14 14 14 14 15 15 15 14 15 15 15 15 15 15 15 15 15
15 14 14 14 15 15 15 14 14 13 13 13 13 13 14 14 13 14 14 15 15 15 15 16 16 16 16 16 16 16 15 15 16 16 16 16 15 15
17 17 16 16 16 16 16 16 16 16 15 15 15 15 15 15 15 15 15 15 16 16 16 16 16 17 17 17 16 16 16 16 16 17 17 17 17 17
18 18 17 17 17 17 18 18 18 18 17 17 17 17 16 16 16 15 16 16 17 17 17 17 17 17 18 17 16 17 17 17 17 18 18 18 18 18
20 20 20 20 20 19 19 19 19 19 19 19 19 19 19 19 18 18 18 18 18 18 18 18 18 19 19 18 18 18 18 18 18 18 18 18 19 19
21 21 22 21 21 21 20 20 20 21 21 21 21 21 21 21 20 20 20 20 20 19 19 20 20 20 20 20 20 20 20 19 19 18 18 19 19 19
23 23 23 23 22 22 22 22 22 22 23 23 22 22 22 22 21 21 22 21 21 21 21 21 21 21 22 22 22 22 21 21 21 20 20 20 20 20
25 25 24 24 24 24 24 25 24 24 25 25 24 23 23 23 23 23 23 23 23 23 24 23 24 24 24 24 23 23 23 23 22 22 22 22 21 21
27 26 26 26 26 26 26 26 27 27 27 27 26 25 25 25 25 25 24 25 25 24 25 25 25 24 25 24 24 24 24 24 24 24 25 24 24 24
28 28 27 27 27 27 27 27 27 28 28 28 28 27 27 27 27 27 26 26 26 26 26 26 26 26 25 24 25 25 25 26 26 26 26 26 26 26
30 29 28 28 28 29 29 28 29 29 30 30 29 29 29 30 30 29 29 27 27 27 27 27 27 27 27 26 25 25 26 27 28 28 27 27 27 27
30 30 30 30 30 30 30 30 30 30 31 31 31 31 31 31 31 31 30 30 29 29 29 29 28 28 28 28 27 27 27 27 28 29 29 29 28 28
31 31 31 31 31 32 32 32 32 33 32 33 33 33 32 32 32 32 32 31 31 31 31 31 30 29 29 29 29 29 29 28 28 29 30 30 29 28
31 31 31 32 31 32 32 33 33 34 33 33 33 32 33 32 32 32 31 31 31 31 31 31 31 30 30 29 29 30 30 30 30 29 29 29 29 29
31 32 32 32 32 32 32 33 33 34 34 34 33 32 33 33 32 32 32 32 32 32 32 31 31 31 31 31 31 30 30 29 30 29 29 29 29 30
32 32 32 31 31 31 32 33 33 33 33 33 33 32 32 32 32 31 31 31 31 31 32 32 31 31 32 32 31 30 29 29 29 29 29 30 30 31
32 31 32 32 32 32 32 32 32 32 31 32 32 32 32 31 31 31 31 31 31 32 32 32 31 31 31 31 31 30 30 30 30 29 30 30 30 31
32 31 31 31 32 32 32 33 33 32 32 32 32 32 32 31 30 31 31 31 31 31 32 31 30 31 31 31 31 30 29 29 30 30 30 31 31 31
31 31 31 31 32 32 32 32 32 32 32 32 32 32 31 31 31 31 31 32 32 31 31 31 31 32 32 31 31 31 31 31 32 32 32 32 32 32
30 31 30 30 31 31 31 32 31 31 32 32 32 31 31 31 31 31 31 31 31 31 31 30 31 31 31 31 31 31 31 32 32 32 33 33 33 32
30 30 29 29 29 30 30 30 30 30 31 31 31 31 31 31 31 30 30 30 30 30 29 29 30 31 31 31 31 31 32 32 32 32 32 32 32 32
29 29 29 29 29 29 30 30 30 29 29 29 29 30 30 30 30 30 29 29 29 28 28 29 29 29 30 31 31 32 32 32 31 31 31 30 30 30
29 29 29 29 29 30 30 29 29 28 29 29 29 29 29 29 29 30 29 29 28 29 29 29 29 29 30 31 31 30 30 30 30 29 29 30 30 29
Wind_Direction
307 302 297 294 292 288 288 290 290 289 289 288 287 283 280 279 275 276 277 279 283 283 282 281 281 280 279 280 278 274 273 274 276 275 277 279 281 281
302 301 298 293 291 288 287 286 287 288 287 288 288 287 287 285 281 281 281 280 281 283 282 281 279 278 277 278 277 275 276 274 276 276 276 277 280 284
301 298 294 291 289 286 285 286 285 286 286 286 287 287 286 285 282 280 280 279 280 282 281 280 279 278 279 277 276 276 278 277 277 277 276 276 277 282
299 296 292 287 286 284 284 284 283 284 285 285 285 284 283 283 279 277 278 280 281 281 281 280 278 278 278 277 275 276 279 278 277 277 277 277 279 282
297 293 291 288 285 281 281 282 281 281 282 283 282 282 280 280 277 276 277 279 281 281 281 280 278 277 276 274 274 276 277 278 276 276 276 278 280 282
296 292 289 288 287 282 279 279 280 280 280 280 279 280 279 279 276 275 277 278 278 279 280 280 280 280 278 274 273 273 273 275 276 275 274 277 280 281
294 292 289 287 285 284 282 279 278 278 279 278 279 280 279 278 276 276 276 275 277 278 279 280 280 279 279 278 274 272 271 272 273 274 274 276 279 280
292 290 288 286 285 282 281 282 279 278 278 278 278 279 279 279 278 277 276 276 276 275 277 278 281 280 280 280 278 275 272 271 272 274 274 275 277 278
291 289 287 286 285 283 280 280 279 277 276 276 276 275 277 278 278 277 276 278 278 277 276 276 277 277 278 277 277 276 275 273 272 272 274 275 275 276
290 288 286 285 284 283 280 279 280 279 276 275 276 275 276 277 278 277 276 276 277 278 278 277 276 275 278 278 276 276 276 276 275 273 273 273 275 275
290 287 285 285 283 282 280 279 278 278 278 277 277 277 277 277 277 277 277 276 276 276 277 276 275 275 276 275 275 275 276 277 277 275 273 273 273 273
290 287 285 283 282 280 279 278 278 278 277 277 277 277 277 278 278 277 277 276 277 276 277 277 277 275 274 273 275 276 277 277 276 274 273 272 272 272
289 287 285 283 281 279 278 278 279 278 277 276 276 277 278 279 279 277 276 275 275 275 274 276 277 276 276 276 275 275 276 277 275 272 272 271 270 271
291 288 287 285 282 280 278 278 279 279 279 278 278 278 279 280 280 277 274 275 275 274 275 275 276 276 277 278 277 276 276 277 275 273 272 269 269 270
292 290 288 285 283 281 279 278 279 279 281 280 278 278 280 280 279 276 274 275 276 276 275 274 274 275 276 278 278 277 277 277 276 275 273 269 269 269
292 290 287 285 283 281 279 278 278 279 280 280 279 277 278 279 279 276 275 276 275 276 275 275 274 273 275 277 278 277 275 277 276 276 276 273 271 270
292 289 286 284 282 281 280 280 279 278 278 279 278 279 278 278 277 276 276 276 276 276 275 274 274 272 272 275 276 275 274 274 275 275 276 276 274 274
293 291 288 285 284 281 281 280 279 279 277 277 279 278 278 278 277 277 277 276 275 274 274 272 271 272 272 273 274 274 274 275 275 276 277 276 275 274
294 293 291 287 285 284 283 282 279 277 277 276 278 277 277 276 277 277 276 276 274 274 273 271 270 271 272 272 272 272 273 274 275 277 278 277 276 275
295 294 291 289 287 285 284 282 279 278 278 278 278 277 276 276 276 275 275 275 275 274 272 271 271 272 272 272 272 273 273 275 276 278 278 279 277 275
296 296 294 292 289 287 285 283 281 280 280 279 278 278 278 278 277 275 275 276 275 275 274 275 275 274 273 273 274 274 274 274 276 277 278 278 277 276
296 297 296 294 293 291 289 286 284 281 280 279 278 278 278 277 277 275 275 276 275 275 275 275 276 275 274 275 276 276 276 276 276 278 279 279 279 277
297 296 295 295 295 293 292 288 285 284 282 279 279 279 279 277 276 275 276 275 274 274 274 274 275 275 275 275 275 275 275 275 276 276 277 278 279 278